Location: Caltech
(34.1382°N, 118.1253°W)
Time: 16:24:53
(UTC-07:00)

Cosmos 2219 - Visible Passes

Search period start: 01 September 2014 00:00
Search period end: 11 September 2014 00:00
Orbit: 835 x 860 km, 71.1° (Epoch: 01 September)

Date Brightness Start Highest point End Pass type
(mag) Time Alt. Az. Time Alt. Az. Time Alt. Az.
01 Sep 6.1 00:14:01 10° NNW 00:14:10 11° NNW 00:14:10 11° NNW visible
02 Sep 6.0 00:00:41 10° NNW 00:00:58 11° NNW 00:00:58 11° NNW visible
02 Sep 6.0 23:47:21 10° NNW 23:47:47 12° NNW 23:47:47 12° NNW visible
03 Sep 5.9 23:34:02 10° NNW 23:34:37 13° NNW 23:34:37 13° NNW visible
04 Sep 5.8 23:20:42 10° NNW 23:21:29 14° NNW 23:21:29 14° NNW visible
05 Sep 5.7 23:07:23 10° NNW 23:08:23 16° NNW 23:08:23 16° NNW visible
06 Sep 5.6 22:54:03 10° NNW 22:55:18 17° NNW 22:55:18 17° NNW visible
07 Sep 5.4 22:40:44 10° NNW 22:42:15 19° N 22:42:15 19° N visible
08 Sep 5.2 22:27:24 10° NNW 22:29:14 21° N 22:29:14 21° N visible
09 Sep 5.0 22:14:05 10° NNW 22:16:16 24° N 22:16:16 24° N visible
10 Sep 4.8 22:00:45 10° NNW 22:03:19 27° N 22:03:19 27° N visible
